Inquirer Daily News

Weather

Get conditions and forecasts for any City, State, ZIP code or Country:  
Northeast Philadelphia, PA
on Saturday, January 26, 2013

Saturday
Previous Day Next Day
Daily Summary
 ActualAverage (KTTN)Record (KTTN)
Temperature
Mean Temperature °F 31°F  
Max Temperature 27°F 39°F 72°F (1950)
Min Temperature 10°F 24°F 1°F (1905)
Degree Days
Heating Degree Days 46 34  
Month to date heating degree days 883  
Since 1 July heating degree days 2778  
Cooling Degree Days 0 0  
Month to date cooling degree days 0  
Year to date cooling degree days 0  
Moisture
Dew Point 9°F   
Average Humidity 65    
Maximum Humidity 92    
Minimum Humidity 44    
Precipitation
Precipitation 3.09 in 0.11 in 1.50 in (1986)
Month to date precipitation 2.67  
Year to date precipitation 2.67  
Wind
Wind Speed 6 mph   
Max Wind Speed 15 mph   
Max Gust Speed 21 mph   
Visibility 9 miles   
Events     

Key: T is trace of precipitation, MM is missing value
Source: NWS Daily Summary
Time(EST)TemperatureDew PointHumidity Pressure Visibility Wind DirectionWind SpeedGust SpeedPrecipitationEvents Conditions
12:54 AM 10.9°F 8.1°F 88% 30.12 in 6.0 miles WSW 4.6 mph - 0.33 in   Clear
1:49 AM 12.2°F 10.4°F 92% 30.11 in 7.0 miles WNW 3.5 mph - 0.17 in   Mostly Cloudy
1:54 AM 12.9°F 10.0°F 88% 30.11 in 8.0 miles WNW 4.6 mph - 0.17 in   Mostly Cloudy
2:13 AM 14.0°F 10.4°F 86% 30.10 in 8.0 miles NW 4.6 mph - 0.02 in   Partly Cloudy
2:54 AM 12.9°F 10.0°F 88% 30.10 in 8.0 miles NW 3.5 mph - 0.14 in   Clear
3:54 AM 15.1°F 12.0°F 88% 30.10 in 10.0 miles WNW 3.5 mph - 0.27 in   Overcast
4:54 AM 17.1°F 12.9°F 84% 30.12 in 10.0 miles WNW 5.8 mph - 0.24 in   Overcast
5:54 AM 18.0°F 12.0°F 78% 30.14 in 10.0 miles WNW 8.1 mph - 0.18 in   Overcast
6:54 AM 17.1°F 12.0°F 81% 30.16 in 10.0 miles WNW 6.9 mph - 0.65 in   Overcast
7:54 AM 16.0°F 10.9°F 81% 30.19 in 8.0 miles West 5.8 mph - 0.13 in   Partly Cloudy
8:54 AM 19.0°F 10.9°F 71% 30.21 in 8.0 miles WNW 6.9 mph - 0.70 in   Clear
9:54 AM 19.9°F 10.0°F 65% 30.22 in 10.0 miles NW 9.2 mph - 0.05 in   Overcast
10:54 AM 23.0°F 10.9°F 60% 30.23 in 10.0 miles NW 10.4 mph - 0.04 in   Overcast
11:54 AM 23.0°F 10.0°F 58% 30.24 in 10.0 miles NNW 9.2 mph - 0.03 in   Partly Cloudy
12:54 PM 25.0°F 8.1°F 49% 30.20 in 10.0 miles NW 10.4 mph - 0.03 in   Clear
1:54 PM 26.1°F 7.0°F 44% 30.20 in 10.0 miles NNW 15.0 mph - 0.01 in   Clear
2:54 PM 27.0°F 9.0°F 47% 30.22 in 10.0 miles NW 12.7 mph 19.6 mph 0.02 in   Clear
3:54 PM 26.1°F 8.1°F 47% 30.24 in 10.0 miles NW 15.0 mph 20.7 mph 0.00 in   Clear
4:54 PM 26.1°F 7.0°F 44% 30.25 in 10.0 miles NW 13.8 mph - 0.01 in   Clear
5:54 PM 25.0°F 7.0°F 46% 30.30 in 10.0 miles NW 6.9 mph - N/A   Clear
6:54 PM 24.1°F 7.0°F 48% 30.31 in 10.0 miles NW 4.6 mph - N/A   Clear
7:54 PM 23.0°F 7.0°F 50% 30.34 in 10.0 miles NW 6.9 mph - 0.01 in   Clear
8:54 PM 21.9°F 7.0°F 53% 30.37 in 10.0 miles NW 5.8 mph - 0.01 in   Clear
9:54 PM 21.0°F 6.1°F 53% 30.40 in 10.0 miles WNW 4.6 mph - 0.04 in   Clear
10:54 PM 21.0°F 6.1°F 53% 30.41 in 10.0 miles NW 3.5 mph - 0.02 in   Clear
11:54 PM 19.0°F 6.1°F 57% 30.43 in 10.0 miles NW 4.6 mph - 0.01 in   Clear
Astronomy
Sunrise:07:13 AM (EST) Moon Rise:05:04 PM (EST)1/26
Sunset:05:12 PM (EST) Moon Set:06:30 AM (EST)1/26
Moon Phase
Jan. 26 Jan. 26 Feb. 03 Feb. 10 Feb. 17

Copyright © 2014 The Weather Underground, Inc.